GFSSE_prec_precacc_156.txt.gz
Total_Precipitation_Accumulation
0.60 0.48 0.13 0.14 0.06 0.02 0.00 0.00 0.00 0.00 0.00 0.00 0.00 0.00 0.00 0.00 0.00 0.00 0.00 0.00 0.01 0.04 0.02 0.02 0.02 0.07 0.12 0.18 0.15 0.11 0.12 0.15 0.32 0.39 0.43 0.65 0.36 0.22 0.18 0.33 0.37 0.25 0.59
1.13 0.74 0.87 0.37 0.08 0.04 0.01 0.01 0.00 0.00 0.00 0.00 0.00 0.00 0.00 0.00 0.00 0.00 0.00 0.01 0.01 0.03 0.02 0.02 0.05 0.09 0.10 0.12 0.05 0.04 0.05 0.11 0.14 0.20 0.43 0.67 0.43 0.23 0.20 0.34 0.48 0.38 0.49
1.62 1.10 1.15 1.28 0.67 0.30 0.10 0.03 0.01 0.00 0.01 0.00 0.01 0.01 0.01 0.01 0.00 0.01 0.01 0.02 0.02 0.03 0.04 0.04 0.11 0.12 0.08 0.03 0.03 0.04 0.03 0.04 0.06 0.18 0.58 0.52 0.47 0.57 0.39 0.39 0.48 0.54 0.38
1.08 0.70 1.40 1.48 1.14 0.79 0.44 0.16 0.05 0.01 0.01 0.00 0.00 0.04 0.04 0.05 0.07 0.04 0.03 0.02 0.05 0.08 0.09 0.06 0.12 0.13 0.05 0.01 0.01 0.02 0.01 0.02 0.04 0.17 0.50 0.68 0.63 0.78 0.66 0.77 0.79 0.50 0.21
1.09 0.52 0.92 1.33 1.39 1.02 0.61 0.36 0.17 0.07 0.03 0.01 0.01 0.03 0.01 0.08 0.08 0.16 0.15 0.03 0.05 0.17 0.26 0.21 0.27 0.15 0.02 0.00 0.00 0.01 0.02 0.02 0.06 0.26 0.45 0.89 0.85 1.06 0.89 0.84 1.04 1.10 0.78
1.42 0.98 0.91 1.46 1.78 2.22 1.42 0.76 0.42 0.20 0.05 0.05 0.05 0.02 0.17 0.21 0.30 0.51 0.45 0.23 0.24 0.29 0.43 0.42 0.39 0.12 0.03 0.00 0.00 0.03 0.06 0.06 0.13 0.45 0.70 1.61 1.15 1.30 0.98 0.74 0.56 0.57 0.68
2.25 2.01 1.35 2.11 2.88 4.08 4.60 3.34 2.23 1.26 0.75 0.50 0.50 0.63 0.48 0.43 0.83 0.71 0.47 0.47 0.43 0.38 0.38 0.55 0.46 0.13 0.06 0.02 0.00 0.02 0.04 0.12 0.31 1.54 0.80 0.92 1.55 1.11 0.96 0.81 0.90 1.01 0.70
3.15 2.80 2.71 2.25 2.70 3.63 5.96 6.17 5.52 5.61 3.44 1.61 1.20 1.15 1.16 1.05 0.83 0.53 0.44 0.62 0.40 0.33 0.43 0.31 0.15 0.08 0.07 0.09 0.04 0.00 0.00 0.11 0.25 0.57 0.49 0.54 0.65 0.95 0.67 0.67 0.89 1.03 0.98
5.65 5.53 4.88 3.86 2.99 2.28 2.99 4.30 4.65 4.21 4.54 3.91 2.76 1.81 2.37 1.85 1.28 0.66 0.49 0.63 0.82 0.75 0.57 0.19 0.20 0.23 0.15 0.18 0.20 0.08 0.02 0.05 0.20 0.47 0.44 0.45 0.89 0.93 0.62 0.51 0.50 0.46 0.40
8.06 7.51 5.82 4.85 3.14 1.53 1.90 2.19 2.56 3.88 2.85 2.42 3.25 2.85 2.21 1.64 1.26 1.03 0.89 0.92 0.94 0.86 1.04 1.24 1.04 0.92 0.59 0.40 0.35 0.27 0.06 0.01 0.19 0.42 0.54 0.35 0.69 1.04 0.68 0.66 0.56 0.40 0.34
6.02 6.49 6.29 4.35 3.00 1.52 1.00 1.11 1.12 2.29 2.92 2.49 1.38 2.24 2.27 1.65 1.42 1.38 1.24 1.33 1.62 1.48 1.36 0.91 0.69 0.50 0.43 0.42 0.40 0.43 0.34 0.16 0.21 0.38 0.42 0.63 0.90 1.07 1.09 0.74 0.43 0.43 0.47
3.37 3.57 5.25 4.49 3.10 2.20 1.65 1.18 0.78 1.13 2.06 2.72 1.75 1.18 1.51 1.48 1.23 1.28 1.41 1.36 1.37 1.41 1.13 0.86 0.73 0.56 0.54 0.39 0.36 0.42 0.40 0.38 0.27 0.25 0.17 0.38 0.75 0.96 0.79 0.64 0.51 0.41 0.50
1.24 1.56 2.39 3.63 4.15 3.15 1.92 1.38 0.74 0.86 1.59 2.65 2.40 1.11 1.09 1.26 1.16 0.87 0.79 1.11 1.13 1.46 1.16 1.13 0.80 0.60 0.51 0.40 0.35 0.33 0.35 0.35 0.30 0.33 0.41 0.50 0.62 0.83 0.64 0.58 0.55 0.61 0.61
0.71 0.94 1.85 2.26 2.27 2.58 2.72 1.61 0.83 0.55 1.16 1.90 2.40 1.10 1.05 0.88 1.03 0.61 0.37 0.51 0.75 0.88 1.08 1.53 1.44 1.04 0.96 0.69 0.54 0.54 0.52 0.66 0.70 0.55 0.66 0.75 0.67 0.97 0.79 0.66 0.59 0.81 0.77
0.46 0.69 1.30 1.15 0.91 1.07 1.85 2.46 1.41 0.97 1.13 1.66 2.26 1.11 0.73 0.61 0.73 0.46 0.28 0.34 0.39 0.45 0.68 0.92 1.20 1.20 1.23 1.17 1.26 1.16 0.94 0.74 0.85 1.00 1.09 1.42 1.29 1.10 1.12 1.02 0.77 0.79 0.62
0.38 0.57 0.92 0.74 0.81 0.80 1.09 1.75 2.00 1.40 1.45 1.78 1.84 1.17 0.92 0.75 0.70 0.57 0.38 0.36 0.35 0.39 0.55 0.80 1.16 1.27 1.34 1.52 1.29 0.96 0.94 0.67 0.67 1.06 1.75 1.84 1.42 1.36 1.12 1.25 1.42 1.22 0.92
0.41 0.62 1.01 1.26 0.62 0.82 0.94 1.19 1.68 1.46 1.26 1.60 1.94 1.70 1.17 1.00 0.66 0.71 0.69 0.63 0.51 0.47 0.56 0.84 1.12 1.26 1.05 1.00 1.09 1.32 1.55 1.46 0.89 0.59 0.73 0.86 0.91 0.95 1.04 1.35 1.52 1.72 1.79
0.37 0.45 0.95 1.52 0.94 0.85 0.85 1.02 1.30 1.34 1.22 1.06 1.27 1.57 1.42 1.27 1.11 0.93 0.70 0.77 0.89 0.77 0.68 0.82 1.06 1.61 1.49 1.09 0.74 0.75 1.03 1.16 1.04 1.09 0.82 0.66 0.64 0.79 1.17 1.01 1.77 2.42 2.24
0.22 0.33 0.72 1.02 1.17 1.13 0.91 0.93 0.87 0.86 1.09 0.77 0.89 0.94 1.18 1.67 1.72 1.33 1.24 1.33 1.27 1.29 1.36 1.60 1.80 1.93 1.54 1.22 0.88 0.66 0.62 0.59 0.47 0.43 0.45 0.46 0.45 0.44 0.44 0.54 0.78 1.06 0.93
0.17 0.43 0.85 0.92 1.07 1.07 0.77 0.64 0.61 0.71 0.78 0.83 0.76 0.77 0.97 1.08 1.05 1.14 1.36 1.60 1.59 1.46 1.19 0.99 1.09 1.24 1.23 1.08 0.98 0.69 0.62 0.43 0.32 0.23 0.24 0.34 0.37 0.52 0.51 0.42 0.57 0.63 0.57
0.12 0.37 0.48 0.71 0.88 0.60 0.38 0.33 0.37 0.42 0.50 0.83 0.84 0.55 0.77 0.98 0.94 0.84 1.13 1.97 2.14 1.36 0.90 0.94 1.21 1.21 1.09 0.96 1.31 1.03 0.74 0.48 0.33 0.22 0.18 0.25 0.26 0.32 0.63 0.66 0.48 0.55 0.66
0.16 0.38 0.47 0.32 0.27 0.28 0.28 0.16 0.12 0.17 0.29 0.63 0.95 0.69 0.72 0.81 0.76 0.88 0.69 0.82 1.40 1.71 1.55 1.09 1.08 1.34 1.24 1.18 1.29 1.23 1.10 1.09 0.65 0.36 0.33 0.22 0.20 0.29 0.27 0.42 0.53 0.42 0.52
0.08 0.12 0.24 0.13 0.07 0.07 0.10 0.13 0.11 0.16 0.32 1.03 1.33 1.00 0.74 0.78 0.75 0.79 0.74 0.67 0.81 1.47 1.55 1.17 0.82 0.95 1.34 1.29 1.19 1.14 1.09 0.75 0.54 0.34 0.34 0.26 0.21 0.20 0.22 0.22 0.25 0.29 0.29
0.03 0.05 0.23 0.13 0.06 0.05 0.05 0.05 0.07 0.11 0.16 0.50 1.03 0.94 0.74 1.02 0.95 0.80 0.92 0.96 0.83 0.81 1.15 1.14 0.92 0.84 1.33 1.21 1.74 1.17 0.74 0.68 0.94 0.73 0.53 0.46 0.43 0.28 0.20 0.24 0.21 0.19 0.22
0.06 0.08 0.20 0.16 0.16 0.08 0.11 0.15 0.26 0.20 0.14 0.23 0.89 1.22 0.98 0.99 1.17 1.18 1.13 1.25 1.22 1.29 0.96 1.45 1.37 1.26 1.39 1.07 0.63 0.94 1.19 1.03 1.25 1.34 0.93 0.59 0.65 0.45 0.34 0.25 0.29 0.34 0.36
0.02 0.11 0.19 0.15 0.21 0.23 0.27 0.22 0.22 0.29 0.18 0.19 0.51 1.07 1.37 1.23 1.24 1.22 1.20 1.18 1.06 1.10 1.25 1.45 1.81 1.77 1.79 1.56 1.14 1.06 0.99 0.95 0.73 1.10 1.25 0.86 0.75 0.59 0.53 0.64 0.54 0.54 0.54

GFSSE_prec_precacc_159.txt.gz
Total_Precipitation_Accumulation
0.61 0.48 0.14 0.14 0.06 0.02 0.00 0.00 0.00 0.00 0.00 0.00 0.00 0.00 0.00 0.00 0.00 0.00 0.00 0.00 0.01 0.04 0.02 0.02 0.02 0.07 0.12 0.18 0.15 0.11 0.12 0.15 0.32 0.39 0.43 0.65 0.36 0.22 0.18 0.33 0.38 0.25 0.62
1.14 0.75 0.87 0.37 0.09 0.04 0.01 0.01 0.00 0.00 0.01 0.00 0.00 0.00 0.00 0.00 0.00 0.00 0.00 0.01 0.01 0.03 0.02 0.02 0.05 0.09 0.10 0.12 0.05 0.04 0.05 0.11 0.14 0.20 0.43 0.67 0.43 0.24 0.20 0.34 0.48 0.38 0.50
1.62 1.10 1.15 1.29 0.67 0.30 0.10 0.04 0.01 0.01 0.01 0.01 0.01 0.01 0.02 0.01 0.00 0.01 0.01 0.02 0.02 0.05 0.06 0.04 0.11 0.12 0.08 0.03 0.03 0.04 0.03 0.04 0.06 0.18 0.58 0.52 0.48 0.65 0.40 0.40 0.48 0.55 0.39
1.08 0.71 1.40 1.49 1.15 0.80 0.44 0.16 0.05 0.02 0.02 0.01 0.01 0.04 0.05 0.06 0.08 0.05 0.04 0.02 0.05 0.10 0.11 0.09 0.15 0.16 0.05 0.01 0.01 0.02 0.01 0.02 0.04 0.17 0.50 0.68 0.63 0.83 0.78 0.87 0.83 0.51 0.23
1.09 0.52 0.92 1.33 1.39 1.03 0.61 0.36 0.17 0.07 0.03 0.01 0.02 0.03 0.01 0.08 0.09 0.16 0.16 0.03 0.07 0.20 0.28 0.25 0.32 0.18 0.04 0.00 0.00 0.01 0.02 0.02 0.06 0.26 0.45 0.89 0.85 1.06 0.92 0.89 1.10 1.17 0.79
1.42 0.98 0.91 1.46 1.78 2.22 1.42 0.76 0.42 0.20 0.05 0.05 0.05 0.02 0.17 0.21 0.31 0.51 0.45 0.23 0.24 0.30 0.44 0.45 0.42 0.14 0.03 0.00 0.00 0.03 0.06 0.06 0.13 0.45 0.70 1.61 1.15 1.30 0.98 0.76 0.59 0.68 0.74
2.25 2.01 1.35 2.11 2.88 4.08 4.60 3.34 2.23 1.26 0.75 0.50 0.50 0.63 0.48 0.43 0.83 0.71 0.47 0.47 0.43 0.38 0.38 0.55 0.46 0.14 0.08 0.03 0.01 0.02 0.04 0.12 0.31 1.54 0.80 0.92 1.55 1.11 0.99 0.85 0.91 1.05 0.73
3.15 2.80 2.71 2.25 2.70 3.63 5.96 6.17 5.52 5.61 3.44 1.61 1.20 1.15 1.16 1.05 0.83 0.53 0.44 0.62 0.40 0.33 0.43 0.31 0.15 0.08 0.07 0.10 0.08 0.03 0.01 0.11 0.25 0.57 0.49 0.54 0.65 0.95 0.68 0.69 0.89 1.03 0.99
5.65 5.53 4.88 3.86 2.99 2.28 2.99 4.30 4.65 4.21 4.54 3.91 2.76 1.81 2.37 1.85 1.28 0.66 0.49 0.63 0.82 0.75 0.57 0.19 0.20 0.23 0.15 0.18 0.22 0.11 0.05 0.07 0.20 0.47 0.44 0.45 0.89 0.93 0.62 0.51 0.50 0.47 0.40
8.06 7.51 5.82 4.85 3.14 1.53 1.90 2.19 2.56 3.88 2.85 2.42 3.25 2.85 2.21 1.64 1.26 1.03 0.89 0.92 0.94 0.86 1.04 1.24 1.04 0.92 0.59 0.40 0.36 0.27 0.06 0.04 0.19 0.42 0.54 0.35 0.69 1.04 0.68 0.67 0.57 0.42 0.36
6.02 6.49 6.29 4.35 3.00 1.52 1.00 1.11 1.12 2.29 2.92 2.49 1.38 2.24 2.27 1.65 1.42 1.38 1.24 1.33 1.62 1.48 1.36 0.91 0.69 0.50 0.43 0.42 0.40 0.43 0.34 0.16 0.21 0.38 0.42 0.63 0.90 1.07 1.09 0.78 0.46 0.45 0.50
3.37 3.57 5.25 4.49 3.10 2.20 1.65 1.18 0.78 1.13 2.06 2.72 1.75 1.18 1.51 1.48 1.23 1.28 1.41 1.36 1.37 1.41 1.13 0.86 0.73 0.56 0.54 0.39 0.36 0.42 0.40 0.38 0.27 0.26 0.18 0.39 0.76 0.96 0.79 0.67 0.53 0.43 0.52
1.24 1.56 2.39 3.63 4.15 3.15 1.92 1.38 0.74 0.86 1.59 2.65 2.40 1.11 1.09 1.26 1.16 0.87 0.79 1.11 1.13 1.46 1.16 1.13 0.80 0.60 0.51 0.40 0.35 0.33 0.35 0.35 0.30 0.33 0.42 0.51 0.63 0.83 0.65 0.61 0.58 0.62 0.62
0.71 0.94 1.85 2.26 2.27 2.58 2.72 1.61 0.83 0.55 1.16 1.90 2.40 1.10 1.05 0.88 1.03 0.61 0.37 0.51 0.75 0.88 1.08 1.53 1.44 1.04 0.96 0.69 0.54 0.54 0.52 0.66 0.70 0.55 0.66 0.76 0.72 1.00 0.81 0.69 0.62 0.85 0.79
0.46 0.69 1.30 1.15 0.91 1.07 1.85 2.46 1.41 0.97 1.13 1.66 2.26 1.11 0.73 0.61 0.73 0.46 0.28 0.34 0.39 0.45 0.68 0.92 1.20 1.20 1.23 1.17 1.26 1.16 0.94 0.74 0.85 1.00 1.09 1.42 1.30 1.11 1.12 1.03 0.78 0.83 0.64
0.38 0.57 0.92 0.74 0.81 0.80 1.09 1.75 2.00 1.40 1.45 1.78 1.84 1.17 0.92 0.75 0.70 0.57 0.38 0.36 0.35 0.39 0.55 0.80 1.16 1.27 1.34 1.52 1.29 0.96 0.94 0.67 0.67 1.06 1.75 1.84 1.42 1.36 1.13 1.26 1.44 1.25 0.97
0.41 0.62 1.01 1.26 0.62 0.82 0.94 1.19 1.68 1.46 1.26 1.60 1.94 1.70 1.17 1.00 0.66 0.71 0.69 0.63 0.51 0.47 0.56 0.84 1.12 1.26 1.05 1.00 1.09 1.32 1.55 1.46 0.89 0.59 0.73 0.86 0.91 0.95 1.04 1.37 1.55 1.74 1.86
0.37 0.45 0.95 1.52 0.94 0.85 0.85 1.02 1.30 1.34 1.22 1.06 1.27 1.57 1.42 1.27 1.11 0.93 0.70 0.77 0.89 0.77 0.68 0.82 1.06 1.61 1.49 1.09 0.74 0.75 1.03 1.16 1.04 1.09 0.82 0.66 0.64 0.79 1.17 1.01 1.77 2.43 2.27
0.22 0.33 0.72 1.02 1.17 1.13 0.91 0.93 0.87 0.86 1.09 0.77 0.89 0.94 1.18 1.67 1.72 1.33 1.24 1.33 1.27 1.29 1.36 1.60 1.80 1.93 1.54 1.22 0.88 0.66 0.62 0.59 0.47 0.43 0.45 0.46 0.45 0.44 0.44 0.55 0.78 1.06 0.93
0.17 0.43 0.85 0.92 1.07 1.07 0.77 0.64 0.61 0.71 0.78 0.83 0.76 0.77 0.97 1.08 1.05 1.14 1.36 1.60 1.59 1.46 1.19 0.99 1.09 1.24 1.23 1.08 0.98 0.69 0.62 0.43 0.32 0.23 0.24 0.34 0.37 0.52 0.51 0.42 0.57 0.63 0.58
0.12 0.37 0.48 0.71 0.88 0.60 0.38 0.33 0.37 0.42 0.50 0.83 0.84 0.55 0.77 0.98 0.94 0.84 1.13 1.97 2.14 1.36 0.90 0.94 1.21 1.21 1.09 0.96 1.31 1.03 0.74 0.48 0.33 0.22 0.18 0.25 0.26 0.32 0.63 0.66 0.48 0.56 0.68
0.16 0.38 0.47 0.32 0.27 0.28 0.28 0.16 0.12 0.17 0.29 0.63 0.95 0.69 0.72 0.81 0.76 0.88 0.69 0.82 1.40 1.71 1.55 1.09 1.08 1.35 1.24 1.18 1.29 1.23 1.10 1.09 0.65 0.36 0.33 0.22 0.20 0.29 0.27 0.42 0.53 0.42 0.53
0.08 0.12 0.24 0.13 0.07 0.07 0.10 0.13 0.11 0.16 0.32 1.03 1.33 1.00 0.74 0.78 0.75 0.79 0.74 0.67 0.81 1.47 1.55 1.17 0.82 0.95 1.34 1.30 1.19 1.16 1.10 0.76 0.54 0.34 0.34 0.26 0.21 0.20 0.23 0.22 0.25 0.30 0.30
0.03 0.05 0.23 0.13 0.06 0.05 0.05 0.05 0.07 0.11 0.16 0.50 1.03 0.94 0.74 1.02 0.95 0.80 0.92 0.96 0.83 0.81 1.15 1.14 0.92 0.84 1.33 1.21 1.74 1.18 0.76 0.71 0.96 0.74 0.53 0.46 0.43 0.28 0.21 0.26 0.23 0.21 0.25
0.06 0.08 0.20 0.16 0.16 0.08 0.11 0.15 0.26 0.20 0.14 0.23 0.89 1.22 0.98 0.99 1.17 1.18 1.13 1.25 1.22 1.29 0.96 1.45 1.37 1.26 1.39 1.08 0.64 0.95 1.20 1.04 1.26 1.36 0.93 0.59 0.67 0.47 0.39 0.27 0.32 0.36 0.38
0.02 0.11 0.19 0.15 0.21 0.23 0.27 0.22 0.22 0.29 0.18 0.19 0.51 1.07 1.37 1.23 1.24 1.22 1.20 1.18 1.06 1.10 1.25 1.45 1.81 1.77 1.79 1.56 1.15 1.06 1.00 0.98 0.75 1.13 1.26 0.86 0.78 0.64 0.60 0.74 0.60 0.58 0.56

GFSSE_prec_precacc_162.txt.gz
Total_Precipitation_Accumulation
0.61 0.49 0.15 0.15 0.07 0.03 0.01 0.00 0.00 0.00 0.00 0.00 0.00 0.00 0.00 0.00 0.00 0.00 0.00 0.00 0.01 0.04 0.02 0.02 0.02 0.07 0.12 0.18 0.15 0.11 0.12 0.15 0.32 0.39 0.43 0.65 0.36 0.22 0.18 0.35 0.38 0.25 0.62
1.15 0.75 0.88 0.37 0.09 0.04 0.02 0.01 0.01 0.00 0.01 0.00 0.00 0.00 0.00 0.00 0.00 0.00 0.00 0.02 0.02 0.03 0.02 0.02 0.05 0.09 0.10 0.12 0.05 0.04 0.05 0.11 0.14 0.20 0.43 0.67 0.44 0.24 0.20 0.36 0.49 0.42 0.51
1.63 1.10 1.15 1.29 0.68 0.31 0.11 0.04 0.02 0.01 0.01 0.01 0.02 0.02 0.02 0.02 0.01 0.02 0.02 0.03 0.06 0.09 0.08 0.07 0.12 0.12 0.08 0.03 0.03 0.04 0.03 0.04 0.06 0.18 0.58 0.52 0.51 0.66 0.40 0.41 0.51 0.57 0.42
1.08 0.71 1.41 1.50 1.15 0.81 0.45 0.17 0.06 0.02 0.02 0.01 0.01 0.05 0.05 0.06 0.09 0.06 0.04 0.03 0.06 0.11 0.14 0.12 0.17 0.17 0.05 0.01 0.01 0.02 0.01 0.02 0.04 0.17 0.50 0.68 0.63 0.83 0.79 0.90 0.85 0.52 0.26
1.09 0.52 0.92 1.34 1.40 1.03 0.61 0.37 0.17 0.07 0.03 0.01 0.02 0.04 0.01 0.08 0.09 0.17 0.16 0.03 0.07 0.21 0.29 0.26 0.33 0.18 0.04 0.00 0.00 0.01 0.02 0.02 0.06 0.26 0.45 0.89 0.85 1.07 0.92 0.89 1.10 1.17 0.82
1.42 0.98 0.91 1.46 1.78 2.22 1.42 0.76 0.42 0.20 0.05 0.05 0.05 0.02 0.17 0.21 0.31 0.51 0.45 0.23 0.24 0.30 0.44 0.45 0.43 0.15 0.03 0.00 0.00 0.03 0.06 0.06 0.13 0.45 0.70 1.61 1.15 1.30 0.98 0.76 0.60 0.71 0.79
2.25 2.01 1.35 2.11 2.88 4.08 4.60 3.34 2.23 1.26 0.75 0.50 0.50 0.63 0.48 0.43 0.83 0.71 0.47 0.47 0.43 0.38 0.38 0.55 0.46 0.14 0.08 0.03 0.03 0.04 0.04 0.12 0.31 1.54 0.80 0.92 1.55 1.11 0.99 0.86 0.92 1.07 0.77
3.15 2.80 2.71 2.25 2.70 3.63 5.96 6.17 5.52 5.61 3.44 1.61 1.20 1.15 1.16 1.05 0.83 0.53 0.44 0.62 0.40 0.33 0.43 0.31 0.15 0.08 0.07 0.10 0.08 0.04 0.01 0.11 0.25 0.57 0.49 0.54 0.65 0.95 0.68 0.70 0.90 1.03 0.99
5.65 5.53 4.88 3.86 2.99 2.28 2.99 4.30 4.65 4.21 4.54 3.91 2.76 1.81 2.37 1.85 1.28 0.66 0.49 0.63 0.82 0.75 0.57 0.19 0.20 0.23 0.15 0.18 0.22 0.11 0.05 0.08 0.21 0.47 0.44 0.45 0.89 0.93 0.62 0.51 0.51 0.48 0.42
8.06 7.51 5.82 4.85 3.14 1.53 1.90 2.19 2.56 3.88 2.85 2.42 3.25 2.85 2.21 1.64 1.26 1.03 0.89 0.92 0.94 0.86 1.04 1.24 1.04 0.92 0.59 0.40 0.36 0.27 0.06 0.04 0.20 0.45 0.57 0.35 0.69 1.04 0.68 0.67 0.58 0.43 0.39
6.02 6.49 6.29 4.35 3.00 1.52 1.00 1.11 1.12 2.29 2.92 2.49 1.38 2.24 2.27 1.65 1.42 1.38 1.24 1.33 1.62 1.48 1.36 0.91 0.69 0.50 0.43 0.42 0.40 0.43 0.34 0.16 0.21 0.38 0.44 0.67 0.92 1.07 1.09 0.78 0.47 0.46 0.50
3.37 3.57 5.25 4.49 3.10 2.20 1.65 1.18 0.78 1.13 2.06 2.72 1.75 1.18 1.51 1.48 1.23 1.28 1.41 1.36 1.37 1.41 1.13 0.86 0.73 0.56 0.54 0.39 0.36 0.42 0.40 0.38 0.27 0.26 0.18 0.40 0.76 0.96 0.79 0.67 0.54 0.44 0.53
1.24 1.56 2.39 3.63 4.15 3.15 1.92 1.38 0.74 0.86 1.59 2.65 2.40 1.11 1.09 1.26 1.16 0.87 0.79 1.11 1.13 1.46 1.16 1.13 0.80 0.60 0.51 0.40 0.35 0.33 0.35 0.35 0.30 0.33 0.42 0.51 0.63 0.84 0.66 0.62 0.59 0.64 0.63
0.71 0.94 1.85 2.26 2.27 2.58 2.72 1.61 0.83 0.55 1.16 1.90 2.40 1.10 1.05 0.88 1.03 0.61 0.37 0.51 0.75 0.88 1.08 1.53 1.44 1.04 0.96 0.69 0.54 0.54 0.52 0.66 0.70 0.55 0.66 0.76 0.72 1.00 0.81 0.71 0.63 0.87 0.80
0.46 0.69 1.30 1.15 0.91 1.07 1.85 2.46 1.41 0.97 1.13 1.66 2.26 1.11 0.73 0.61 0.73 0.46 0.28 0.34 0.39 0.45 0.68 0.92 1.20 1.20 1.23 1.17 1.26 1.16 0.94 0.74 0.85 1.00 1.09 1.42 1.30 1.11 1.12 1.03 0.78 0.84 0.66
0.38 0.57 0.92 0.74 0.81 0.80 1.09 1.75 2.00 1.40 1.45 1.78 1.84 1.17 0.92 0.75 0.70 0.57 0.38 0.36 0.35 0.39 0.55 0.80 1.16 1.27 1.34 1.52 1.29 0.96 0.94 0.67 0.67 1.06 1.75 1.84 1.42 1.36 1.13 1.26 1.44 1.26 1.02
0.41 0.62 1.01 1.26 0.62 0.82 0.94 1.19 1.68 1.46 1.26 1.60 1.94 1.70 1.17 1.00 0.66 0.71 0.69 0.63 0.51 0.47 0.56 0.84 1.12 1.26 1.05 1.00 1.09 1.32 1.55 1.46 0.89 0.59 0.73 0.86 0.91 0.95 1.04 1.37 1.55 1.74 1.88
0.37 0.45 0.95 1.52 0.94 0.85 0.85 1.02 1.30 1.34 1.22 1.06 1.27 1.57 1.42 1.27 1.11 0.93 0.70 0.77 0.89 0.77 0.68 0.82 1.06 1.61 1.49 1.09 0.74 0.75 1.03 1.16 1.04 1.09 0.82 0.66 0.64 0.79 1.17 1.01 1.77 2.43 2.27
0.22 0.33 0.72 1.02 1.17 1.13 0.91 0.93 0.87 0.86 1.09 0.77 0.89 0.94 1.18 1.67 1.72 1.33 1.24 1.33 1.27 1.29 1.36 1.60 1.80 1.93 1.54 1.22 0.88 0.66 0.62 0.59 0.47 0.43 0.45 0.46 0.45 0.44 0.44 0.55 0.78 1.06 0.93
0.17 0.43 0.85 0.92 1.07 1.07 0.77 0.64 0.61 0.71 0.78 0.83 0.76 0.77 0.97 1.08 1.05 1.14 1.36 1.60 1.59 1.46 1.19 0.99 1.09 1.24 1.23 1.08 0.98 0.69 0.62 0.43 0.32 0.23 0.24 0.34 0.37 0.52 0.51 0.42 0.57 0.63 0.58
0.12 0.37 0.48 0.71 0.88 0.60 0.38 0.33 0.37 0.42 0.50 0.83 0.84 0.55 0.77 0.98 0.94 0.84 1.13 1.97 2.14 1.36 0.90 0.94 1.21 1.21 1.09 0.96 1.31 1.03 0.74 0.48 0.33 0.22 0.18 0.25 0.26 0.32 0.63 0.66 0.48 0.56 0.68
0.16 0.38 0.47 0.32 0.27 0.28 0.28 0.16 0.12 0.17 0.29 0.63 0.95 0.69 0.72 0.81 0.76 0.88 0.69 0.82 1.40 1.71 1.55 1.09 1.08 1.35 1.24 1.18 1.29 1.23 1.10 1.09 0.65 0.36 0.33 0.22 0.20 0.29 0.27 0.42 0.53 0.42 0.53
0.08 0.12 0.24 0.13 0.07 0.07 0.10 0.13 0.11 0.16 0.32 1.03 1.33 1.00 0.74 0.78 0.75 0.79 0.74 0.67 0.81 1.47 1.55 1.17 0.82 0.95 1.35 1.30 1.19 1.16 1.11 0.76 0.54 0.34 0.34 0.26 0.21 0.20 0.23 0.23 0.26 0.30 0.30
0.03 0.05 0.23 0.13 0.06 0.05 0.05 0.05 0.07 0.11 0.16 0.50 1.03 0.94 0.74 1.02 0.95 0.80 0.92 0.96 0.83 0.81 1.15 1.14 0.92 0.84 1.33 1.22 1.75 1.18 0.77 0.72 0.97 0.74 0.53 0.46 0.43 0.28 0.22 0.29 0.27 0.24 0.27
0.06 0.08 0.20 0.16 0.16 0.08 0.11 0.15 0.26 0.20 0.14 0.23 0.89 1.22 0.98 0.99 1.17 1.18 1.13 1.25 1.22 1.29 0.96 1.45 1.37 1.26 1.39 1.08 0.64 0.95 1.20 1.04 1.26 1.37 0.93 0.60 0.68 0.49 0.41 0.34 0.46 0.40 0.39
0.02 0.11 0.19 0.15 0.21 0.23 0.27 0.22 0.22 0.29 0.18 0.19 0.51 1.07 1.37 1.23 1.24 1.22 1.20 1.18 1.06 1.10 1.25 1.45 1.81 1.78 1.79 1.56 1.15 1.07 1.01 0.99 0.76 1.14 1.28 0.87 0.79 0.70 0.64 0.87 0.77 0.68 0.60

GFSSE_prec_precacc_165.txt.gz
Total_Precipitation_Accumulation
0.62 0.50 0.15 0.16 0.07 0.03 0.01 0.00 0.00 0.00 0.00 0.00 0.00 0.00 0.00 0.00 0.00 0.00 0.00 0.00 0.01 0.04 0.02 0.02 0.02 0.07 0.12 0.18 0.15 0.11 0.12 0.15 0.32 0.39 0.43 0.65 0.36 0.22 0.18 0.35 0.39 0.31 0.64
1.16 0.76 0.88 0.38 0.09 0.05 0.02 0.01 0.01 0.00 0.01 0.00 0.00 0.00 0.00 0.00 0.00 0.00 0.00 0.02 0.02 0.03 0.02 0.02 0.05 0.09 0.10 0.12 0.05 0.04 0.05 0.11 0.14 0.20 0.43 0.67 0.44 0.24 0.20 0.36 0.50 0.54 0.57
1.63 1.11 1.16 1.30 0.68 0.31 0.11 0.04 0.02 0.01 0.02 0.01 0.02 0.02 0.02 0.02 0.01 0.02 0.02 0.03 0.06 0.09 0.08 0.07 0.12 0.12 0.08 0.03 0.03 0.04 0.03 0.04 0.06 0.18 0.58 0.53 0.55 0.66 0.40 0.41 0.51 0.57 0.42
1.09 0.71 1.41 1.50 1.15 0.81 0.45 0.18 0.06 0.03 0.02 0.01 0.01 0.05 0.05 0.06 0.09 0.06 0.04 0.03 0.06 0.12 0.15 0.14 0.19 0.18 0.05 0.01 0.01 0.02 0.01 0.02 0.04 0.17 0.50 0.68 0.64 0.83 0.79 0.90 0.85 0.52 0.26
1.10 0.52 0.93 1.34 1.40 1.03 0.61 0.37 0.17 0.07 0.03 0.01 0.02 0.04 0.01 0.08 0.09 0.17 0.16 0.03 0.07 0.21 0.29 0.27 0.35 0.19 0.04 0.00 0.00 0.01 0.02 0.02 0.06 0.26 0.45 0.89 0.85 1.07 0.92 0.89 1.10 1.17 0.83
1.42 0.98 0.91 1.46 1.78 2.22 1.42 0.76 0.42 0.20 0.05 0.05 0.05 0.02 0.17 0.21 0.31 0.51 0.45 0.23 0.24 0.30 0.44 0.45 0.43 0.15 0.03 0.00 0.00 0.03 0.06 0.06 0.13 0.45 0.70 1.61 1.15 1.30 0.98 0.76 0.60 0.71 0.79
2.25 2.01 1.35 2.11 2.88 4.08 4.60 3.34 2.23 1.26 0.75 0.50 0.50 0.63 0.48 0.43 0.83 0.71 0.47 0.47 0.43 0.38 0.38 0.55 0.46 0.14 0.08 0.03 0.03 0.04 0.04 0.12 0.31 1.54 0.80 0.92 1.55 1.11 0.99 0.86 0.92 1.07 0.77
3.15 2.80 2.71 2.25 2.70 3.63 5.96 6.17 5.52 5.61 3.44 1.61 1.20 1.15 1.16 1.05 0.83 0.53 0.44 0.62 0.40 0.33 0.43 0.31 0.15 0.08 0.07 0.10 0.08 0.04 0.01 0.11 0.25 0.57 0.49 0.54 0.65 0.95 0.68 0.70 0.90 1.03 0.99
5.65 5.53 4.88 3.86 2.99 2.28 2.99 4.30 4.65 4.21 4.54 3.91 2.76 1.81 2.37 1.85 1.28 0.66 0.49 0.63 0.82 0.75 0.57 0.19 0.20 0.23 0.15 0.18 0.22 0.11 0.05 0.08 0.21 0.47 0.45 0.46 0.91 0.94 0.63 0.51 0.51 0.49 0.43
8.06 7.51 5.82 4.85 3.14 1.53 1.90 2.19 2.56 3.88 2.85 2.42 3.25 2.85 2.21 1.64 1.26 1.03 0.89 0.92 0.94 0.86 1.04 1.24 1.04 0.92 0.59 0.40 0.36 0.27 0.06 0.04 0.20 0.46 0.58 0.36 0.74 1.09 0.72 0.69 0.58 0.44 0.40
6.02 6.49 6.29 4.35 3.00 1.52 1.00 1.11 1.12 2.29 2.92 2.49 1.38 2.24 2.27 1.65 1.42 1.38 1.24 1.33 1.62 1.48 1.36 0.91 0.69 0.50 0.43 0.42 0.40 0.43 0.34 0.16 0.21 0.38 0.44 0.69 0.94 1.09 1.11 0.80 0.47 0.46 0.51
3.37 3.57 5.25 4.49 3.10 2.20 1.65 1.18 0.78 1.13 2.06 2.72 1.75 1.18 1.51 1.48 1.23 1.28 1.41 1.36 1.37 1.41 1.13 0.86 0.73 0.56 0.54 0.39 0.36 0.42 0.40 0.38 0.27 0.26 0.18 0.40 0.76 0.96 0.80 0.69 0.56 0.45 0.53
1.24 1.56 2.39 3.63 4.15 3.15 1.92 1.38 0.74 0.86 1.59 2.65 2.40 1.11 1.09 1.26 1.16 0.87 0.79 1.11 1.13 1.46 1.16 1.13 0.80 0.60 0.51 0.40 0.35 0.33 0.35 0.35 0.30 0.33 0.42 0.51 0.63 0.84 0.66 0.63 0.62 0.66 0.66
0.71 0.94 1.85 2.26 2.27 2.58 2.72 1.61 0.83 0.55 1.16 1.90 2.40 1.10 1.05 0.88 1.03 0.61 0.37 0.51 0.75 0.88 1.08 1.53 1.44 1.04 0.96 0.69 0.54 0.54 0.52 0.66 0.70 0.55 0.66 0.76 0.72 1.00 0.81 0.71 0.64 0.89 0.84
0.46 0.69 1.30 1.15 0.91 1.07 1.85 2.46 1.41 0.97 1.13 1.66 2.26 1.11 0.73 0.61 0.73 0.46 0.28 0.34 0.39 0.45 0.68 0.92 1.20 1.20 1.23 1.17 1.26 1.16 0.94 0.74 0.85 1.00 1.09 1.42 1.30 1.11 1.12 1.03 0.78 0.84 0.68
0.38 0.57 0.92 0.74 0.81 0.80 1.09 1.75 2.00 1.40 1.45 1.78 1.84 1.17 0.92 0.75 0.70 0.57 0.38 0.36 0.35 0.39 0.55 0.80 1.16 1.27 1.34 1.52 1.29 0.96 0.94 0.67 0.67 1.06 1.75 1.84 1.42 1.36 1.13 1.26 1.44 1.26 1.03
0.41 0.62 1.01 1.26 0.62 0.82 0.94 1.19 1.68 1.46 1.26 1.60 1.94 1.70 1.17 1.00 0.66 0.71 0.69 0.63 0.51 0.47 0.56 0.84 1.12 1.26 1.05 1.00 1.09 1.32 1.55 1.46 0.89 0.59 0.73 0.86 0.91 0.95 1.04 1.37 1.55 1.74 1.88
0.37 0.45 0.95 1.52 0.94 0.85 0.85 1.02 1.30 1.34 1.22 1.06 1.27 1.57 1.42 1.27 1.11 0.93 0.70 0.77 0.89 0.77 0.68 0.82 1.06 1.61 1.49 1.09 0.74 0.75 1.03 1.16 1.04 1.09 0.82 0.66 0.64 0.79 1.17 1.01 1.77 2.43 2.27
0.22 0.33 0.72 1.02 1.17 1.13 0.91 0.93 0.87 0.86 1.09 0.77 0.89 0.94 1.18 1.67 1.72 1.33 1.24 1.33 1.27 1.29 1.36 1.60 1.80 1.93 1.54 1.22 0.88 0.66 0.62 0.59 0.47 0.43 0.45 0.46 0.45 0.44 0.44 0.55 0.78 1.06 0.93
0.17 0.43 0.85 0.92 1.07 1.07 0.77 0.64 0.61 0.71 0.78 0.83 0.76 0.77 0.97 1.08 1.05 1.14 1.36 1.60 1.59 1.46 1.19 0.99 1.09 1.24 1.23 1.08 0.98 0.69 0.62 0.43 0.32 0.23 0.24 0.34 0.37 0.52 0.51 0.42 0.57 0.63 0.58
0.12 0.37 0.48 0.71 0.88 0.60 0.38 0.33 0.37 0.42 0.50 0.83 0.84 0.55 0.77 0.98 0.94 0.84 1.13 1.97 2.14 1.36 0.90 0.94 1.21 1.21 1.09 0.96 1.31 1.03 0.74 0.48 0.33 0.22 0.18 0.25 0.26 0.32 0.63 0.66 0.48 0.56 0.68
0.16 0.38 0.47 0.32 0.27 0.28 0.28 0.16 0.12 0.17 0.29 0.63 0.95 0.69 0.72 0.81 0.76 0.88 0.69 0.82 1.40 1.71 1.55 1.09 1.08 1.35 1.24 1.18 1.29 1.23 1.10 1.09 0.65 0.36 0.33 0.22 0.20 0.29 0.27 0.42 0.53 0.43 0.53
0.08 0.12 0.24 0.13 0.07 0.07 0.10 0.13 0.11 0.16 0.32 1.03 1.33 1.00 0.74 0.78 0.75 0.79 0.74 0.67 0.81 1.47 1.55 1.17 0.82 0.95 1.35 1.30 1.19 1.17 1.11 0.76 0.54 0.34 0.34 0.26 0.21 0.20 0.23 0.23 0.26 0.31 0.31
0.03 0.05 0.23 0.13 0.06 0.05 0.05 0.05 0.07 0.11 0.16 0.50 1.03 0.94 0.74 1.02 0.95 0.80 0.92 0.96 0.83 0.81 1.15 1.14 0.92 0.84 1.33 1.22 1.75 1.18 0.77 0.73 0.98 0.75 0.53 0.46 0.43 0.29 0.24 0.32 0.30 0.25 0.28
0.06 0.08 0.20 0.16 0.16 0.08 0.11 0.15 0.26 0.20 0.14 0.23 0.89 1.22 0.98 0.99 1.17 1.18 1.13 1.25 1.22 1.29 0.96 1.45 1.37 1.26 1.39 1.08 0.64 0.95 1.21 1.04 1.27 1.38 0.94 0.60 0.68 0.50 0.43 0.37 0.50 0.42 0.41
0.02 0.11 0.19 0.15 0.21 0.23 0.27 0.22 0.22 0.29 0.18 0.19 0.51 1.07 1.37 1.23 1.24 1.22 1.20 1.18 1.06 1.10 1.25 1.45 1.81 1.78 1.79 1.56 1.15 1.07 1.01 0.99 0.76 1.15 1.29 0.87 0.79 0.70 0.66 0.93 0.82 0.74 0.67

GFSSE_prec_precacc_168.txt.gz
Total_Precipitation_Accumulation
0.62 0.50 0.15 0.16 0.07 0.03 0.01 0.00 0.00 0.00 0.00 0.00 0.00 0.00 0.00 0.00 0.00 0.00 0.00 0.00 0.01 0.04 0.02 0.02 0.02 0.07 0.12 0.18 0.15 0.11 0.12 0.15 0.32 0.39 0.43 0.65 0.36 0.22 0.18 0.35 0.39 0.33 0.70
1.16 0.77 0.88 0.38 0.10 0.05 0.02 0.01 0.01 0.00 0.01 0.00 0.00 0.00 0.00 0.00 0.00 0.00 0.00 0.02 0.02 0.03 0.02 0.02 0.05 0.09 0.10 0.12 0.05 0.04 0.05 0.11 0.14 0.20 0.43 0.67 0.44 0.24 0.20 0.36 0.50 0.54 0.59
1.63 1.11 1.16 1.30 0.69 0.31 0.12 0.05 0.02 0.01 0.02 0.02 0.02 0.02 0.02 0.02 0.01 0.02 0.02 0.03 0.06 0.09 0.09 0.07 0.12 0.13 0.08 0.04 0.03 0.04 0.03 0.04 0.06 0.18 0.58 0.53 0.56 0.68 0.41 0.41 0.51 0.57 0.42
1.09 0.72 1.42 1.51 1.16 0.81 0.46 0.18 0.07 0.03 0.03 0.01 0.01 0.05 0.06 0.06 0.09 0.06 0.04 0.03 0.06 0.12 0.16 0.14 0.20 0.19 0.06 0.01 0.01 0.02 0.01 0.02 0.04 0.17 0.50 0.68 0.65 0.90 0.83 0.91 0.85 0.52 0.26
1.10 0.53 0.93 1.34 1.40 1.03 0.61 0.37 0.17 0.07 0.03 0.01 0.02 0.04 0.02 0.09 0.09 0.17 0.16 0.03 0.07 0.21 0.29 0.27 0.35 0.19 0.04 0.00 0.00 0.01 0.02 0.02 0.06 0.26 0.45 0.89 0.85 1.13 1.01 0.93 1.11 1.17 0.83
1.42 0.99 0.91 1.47 1.78 2.22 1.42 0.76 0.42 0.20 0.05 0.05 0.05 0.02 0.17 0.21 0.31 0.51 0.45 0.23 0.24 0.30 0.44 0.45 0.43 0.15 0.03 0.00 0.00 0.03 0.06 0.06 0.13 0.45 0.70 1.61 1.15 1.32 1.01 0.80 0.60 0.71 0.80
2.25 2.01 1.35 2.11 2.88 4.08 4.60 3.34 2.23 1.26 0.75 0.50 0.50 0.63 0.48 0.43 0.83 0.71 0.47 0.47 0.43 0.38 0.38 0.55 0.46 0.14 0.08 0.03 0.03 0.04 0.04 0.12 0.31 1.54 0.80 0.92 1.55 1.13 1.00 0.86 0.93 1.07 0.78
3.15 2.80 2.71 2.25 2.70 3.63 5.96 6.17 5.52 5.61 3.44 1.61 1.20 1.15 1.16 1.05 0.83 0.53 0.44 0.62 0.40 0.33 0.43 0.31 0.15 0.08 0.07 0.10 0.08 0.04 0.01 0.11 0.25 0.57 0.49 0.54 0.66 1.00 0.75 0.74 0.92 1.04 0.99
5.65 5.53 4.88 3.86 2.99 2.28 2.99 4.30 4.65 4.21 4.54 3.91 2.76 1.81 2.37 1.85 1.28 0.66 0.49 0.63 0.82 0.75 0.57 0.19 0.20 0.23 0.15 0.18 0.22 0.11 0.05 0.08 0.21 0.47 0.45 0.46 0.91 0.97 0.69 0.57 0.52 0.50 0.43
8.06 7.51 5.82 4.85 3.14 1.53 1.90 2.19 2.56 3.88 2.85 2.42 3.25 2.85 2.21 1.64 1.26 1.03 0.89 0.92 0.94 0.86 1.04 1.24 1.04 0.92 0.59 0.40 0.36 0.27 0.06 0.04 0.20 0.46 0.58 0.37 0.75 1.11 0.77 0.75 0.62 0.47 0.41
6.02 6.49 6.29 4.35 3.00 1.52 1.00 1.11 1.12 2.29 2.92 2.49 1.38 2.24 2.27 1.65 1.42 1.38 1.24 1.33 1.62 1.48 1.36 0.91 0.69 0.50 0.43 0.42 0.40 0.43 0.34 0.16 0.21 0.38 0.44 0.69 0.95 1.10 1.16 0.87 0.56 0.52 0.55
3.37 3.57 5.25 4.49 3.10 2.20 1.65 1.18 0.78 1.13 2.06 2.72 1.75 1.18 1.51 1.48 1.23 1.28 1.41 1.36 1.37 1.41 1.13 0.86 0.73 0.56 0.54 0.39 0.36 0.42 0.40 0.38 0.27 0.26 0.18 0.40 0.76 0.96 0.80 0.69 0.57 0.48 0.57
1.24 1.56 2.39 3.63 4.15 3.15 1.92 1.38 0.74 0.86 1.59 2.65 2.40 1.11 1.09 1.26 1.16 0.87 0.79 1.11 1.13 1.46 1.16 1.13 0.80 0.60 0.51 0.40 0.35 0.33 0.35 0.35 0.30 0.33 0.42 0.51 0.63 0.84 0.66 0.63 0.62 0.67 0.67
0.71 0.94 1.85 2.26 2.27 2.58 2.72 1.61 0.83 0.55 1.16 1.90 2.40 1.10 1.05 0.88 1.03 0.61 0.37 0.51 0.75 0.88 1.08 1.53 1.44 1.04 0.96 0.69 0.54 0.54 0.52 0.66 0.70 0.55 0.66 0.76 0.72 1.00 0.81 0.71 0.64 0.89 0.84
0.46 0.69 1.30 1.15 0.91 1.07 1.85 2.46 1.41 0.97 1.13 1.66 2.26 1.11 0.73 0.61 0.73 0.46 0.28 0.34 0.39 0.45 0.68 0.92 1.20 1.20 1.23 1.17 1.26 1.16 0.94 0.74 0.85 1.00 1.09 1.42 1.30 1.11 1.12 1.03 0.78 0.84 0.68
0.38 0.57 0.92 0.74 0.81 0.80 1.09 1.75 2.00 1.40 1.45 1.78 1.84 1.17 0.92 0.75 0.70 0.57 0.38 0.36 0.35 0.39 0.55 0.80 1.16 1.27 1.34 1.52 1.29 0.96 0.94 0.67 0.67 1.06 1.75 1.84 1.42 1.36 1.13 1.26 1.44 1.26 1.03
0.41 0.62 1.02 1.26 0.62 0.82 0.94 1.19 1.68 1.46 1.26 1.60 1.94 1.70 1.17 1.00 0.66 0.71 0.69 0.63 0.51 0.47 0.56 0.84 1.12 1.26 1.05 1.00 1.09 1.32 1.55 1.46 0.89 0.59 0.73 0.86 0.91 0.95 1.04 1.37 1.55 1.74 1.88
0.37 0.45 0.95 1.52 0.94 0.85 0.85 1.02 1.30 1.34 1.22 1.06 1.27 1.57 1.42 1.27 1.11 0.93 0.70 0.77 0.89 0.77 0.68 0.82 1.06 1.61 1.49 1.09 0.74 0.75 1.03 1.16 1.04 1.09 0.82 0.66 0.64 0.79 1.17 1.01 1.77 2.43 2.27
0.22 0.33 0.72 1.02 1.17 1.13 0.91 0.93 0.87 0.86 1.09 0.77 0.89 0.94 1.18 1.67 1.72 1.33 1.24 1.33 1.27 1.29 1.36 1.60 1.80 1.93 1.54 1.22 0.88 0.66 0.62 0.59 0.47 0.43 0.45 0.46 0.45 0.44 0.44 0.55 0.78 1.06 0.93
0.17 0.43 0.85 0.92 1.07 1.07 0.77 0.64 0.61 0.71 0.78 0.83 0.76 0.77 0.97 1.08 1.05 1.14 1.36 1.60 1.59 1.46 1.19 0.99 1.09 1.24 1.23 1.08 0.98 0.69 0.62 0.43 0.32 0.23 0.24 0.34 0.37 0.52 0.51 0.42 0.57 0.63 0.58
0.12 0.37 0.48 0.71 0.88 0.60 0.38 0.33 0.37 0.42 0.50 0.83 0.84 0.55 0.77 0.98 0.94 0.84 1.13 1.97 2.14 1.36 0.90 0.94 1.21 1.21 1.09 0.96 1.31 1.03 0.74 0.48 0.33 0.22 0.18 0.25 0.26 0.32 0.63 0.66 0.48 0.56 0.68
0.16 0.38 0.47 0.32 0.27 0.28 0.28 0.16 0.12 0.17 0.29 0.63 0.95 0.69 0.72 0.81 0.76 0.88 0.69 0.82 1.40 1.71 1.55 1.09 1.08 1.35 1.24 1.18 1.29 1.23 1.10 1.09 0.65 0.36 0.33 0.22 0.20 0.29 0.27 0.42 0.54 0.43 0.54
0.08 0.12 0.24 0.13 0.07 0.07 0.10 0.13 0.11 0.16 0.32 1.03 1.33 1.00 0.74 0.78 0.75 0.79 0.74 0.67 0.81 1.47 1.55 1.17 0.82 0.95 1.35 1.30 1.19 1.17 1.11 0.76 0.54 0.34 0.34 0.26 0.21 0.20 0.23 0.24 0.27 0.32 0.31
0.03 0.05 0.23 0.13 0.06 0.05 0.05 0.05 0.07 0.11 0.16 0.50 1.03 0.94 0.74 1.02 0.95 0.80 0.92 0.96 0.83 0.81 1.15 1.14 0.92 0.84 1.33 1.22 1.75 1.18 0.77 0.73 0.99 0.75 0.53 0.46 0.43 0.29 0.24 0.33 0.33 0.26 0.29
0.06 0.08 0.20 0.16 0.16 0.08 0.11 0.15 0.26 0.20 0.14 0.23 0.89 1.22 0.98 0.99 1.17 1.18 1.13 1.25 1.22 1.29 0.96 1.45 1.37 1.26 1.39 1.08 0.64 0.95 1.21 1.04 1.27 1.39 0.94 0.60 0.68 0.50 0.43 0.39 0.56 0.44 0.41
0.02 0.11 0.19 0.15 0.21 0.23 0.27 0.22 0.22 0.29 0.18 0.19 0.51 1.07 1.37 1.23 1.24 1.22 1.20 1.18 1.06 1.10 1.25 1.45 1.81 1.78 1.79 1.56 1.15 1.07 1.01 1.00 0.77 1.16 1.30 0.87 0.79 0.70 0.66 0.99 0.87 0.75 0.68

GFSSE_prec_precacc_171.txt.gz
Total_Precipitation_Accumulation
0.62 0.50 0.15 0.16 0.07 0.03 0.01 0.00 0.00 0.00 0.00 0.00 0.00 0.00 0.00 0.00 0.00 0.00 0.00 0.00 0.01 0.04 0.02 0.02 0.02 0.07 0.12 0.18 0.15 0.11 0.12 0.15 0.32 0.39 0.43 0.65 0.36 0.22 0.18 0.35 0.39 0.33 0.71
1.16 0.77 0.88 0.38 0.10 0.05 0.02 0.01 0.01 0.00 0.01 0.00 0.00 0.00 0.00 0.00 0.00 0.00 0.00 0.02 0.02 0.03 0.02 0.02 0.05 0.09 0.11 0.12 0.05 0.04 0.05 0.11 0.14 0.20 0.43 0.67 0.44 0.30 0.25 0.37 0.50 0.54 0.59
1.63 1.11 1.16 1.30 0.69 0.31 0.12 0.05 0.02 0.01 0.02 0.02 0.02 0.02 0.02 0.02 0.01 0.03 0.02 0.03 0.06 0.09 0.09 0.07 0.12 0.13 0.09 0.04 0.03 0.04 0.03 0.04 0.06 0.18 0.58 0.53 0.56 0.75 0.50 0.44 0.51 0.59 0.43
1.09 0.72 1.42 1.51 1.17 0.82 0.46 0.18 0.07 0.03 0.03 0.02 0.02 0.05 0.06 0.07 0.09 0.06 0.04 0.03 0.07 0.12 0.16 0.15 0.20 0.19 0.06 0.02 0.01 0.03 0.01 0.02 0.04 0.17 0.50 0.68 0.65 0.95 0.91 0.95 0.86 0.54 0.28
1.10 0.53 0.94 1.35 1.41 1.04 0.61 0.37 0.17 0.07 0.04 0.01 0.02 0.04 0.02 0.09 0.09 0.17 0.16 0.03 0.07 0.21 0.29 0.27 0.35 0.19 0.04 0.01 0.00 0.01 0.02 0.02 0.06 0.26 0.45 0.89 0.85 1.16 1.06 0.98 1.12 1.18 0.85
1.42 0.99 0.92 1.48 1.79 2.23 1.42 0.76 0.42 0.20 0.06 0.05 0.05 0.02 0.17 0.21 0.31 0.51 0.45 0.23 0.24 0.30 0.44 0.45 0.43 0.15 0.03 0.00 0.00 0.03 0.06 0.06 0.13 0.45 0.70 1.61 1.15 1.36 1.05 0.83 0.62 0.71 0.81
2.25 2.01 1.35 2.12 2.89 4.09 4.60 3.35 2.23 1.26 0.75 0.50 0.50 0.63 0.48 0.43 0.83 0.71 0.47 0.47 0.43 0.38 0.38 0.55 0.46 0.14 0.08 0.03 0.03 0.04 0.04 0.12 0.31 1.54 0.80 0.92 1.55 1.16 1.06 0.92 0.95 1.07 0.79
3.15 2.80 2.71 2.25 2.70 3.63 5.96 6.17 5.52 5.61 3.44 1.61 1.20 1.15 1.16 1.05 0.83 0.53 0.44 0.62 0.40 0.33 0.43 0.31 0.15 0.08 0.07 0.10 0.08 0.04 0.01 0.11 0.25 0.57 0.49 0.54 0.66 1.01 0.79 0.79 0.96 1.06 0.99
5.65 5.53 4.88 3.86 2.99 2.28 2.99 4.30 4.65 4.21 4.54 3.91 2.76 1.81 2.37 1.85 1.28 0.66 0.49 0.63 0.82 0.75 0.57 0.19 0.20 0.23 0.15 0.18 0.22 0.11 0.05 0.08 0.21 0.47 0.45 0.46 0.92 0.98 0.71 0.61 0.59 0.56 0.45
8.06 7.51 5.82 4.85 3.14 1.53 1.90 2.19 2.56 3.88 2.85 2.42 3.25 2.85 2.21 1.64 1.26 1.03 0.89 0.92 0.94 0.86 1.04 1.24 1.04 0.92 0.59 0.40 0.36 0.27 0.06 0.04 0.20 0.46 0.58 0.37 0.75 1.12 0.80 0.78 0.67 0.55 0.49
6.02 6.49 6.29 4.35 3.00 1.52 1.00 1.11 1.12 2.29 2.92 2.49 1.38 2.24 2.27 1.65 1.42 1.38 1.24 1.33 1.62 1.48 1.36 0.91 0.69 0.50 0.43 0.42 0.40 0.43 0.34 0.16 0.21 0.38 0.44 0.69 0.95 1.10 1.16 0.88 0.59 0.60 0.64
3.37 3.57 5.25 4.49 3.10 2.20 1.65 1.18 0.78 1.13 2.06 2.72 1.75 1.18 1.51 1.48 1.23 1.28 1.41 1.36 1.37 1.41 1.13 0.86 0.73 0.56 0.54 0.39 0.36 0.42 0.40 0.38 0.27 0.26 0.18 0.40 0.76 0.96 0.80 0.69 0.57 0.49 0.59
1.24 1.56 2.39 3.63 4.15 3.15 1.92 1.38 0.74 0.86 1.59 2.65 2.40 1.11 1.09 1.26 1.16 0.87 0.79 1.11 1.13 1.46 1.16 1.13 0.80 0.60 0.51 0.40 0.35 0.33 0.35 0.35 0.30 0.33 0.42 0.51 0.63 0.84 0.66 0.63 0.62 0.67 0.67
0.71 0.94 1.85 2.26 2.27 2.58 2.72 1.61 0.83 0.55 1.16 1.90 2.40 1.10 1.05 0.88 1.03 0.61 0.37 0.51 0.75 0.88 1.08 1.53 1.44 1.04 0.96 0.69 0.54 0.54 0.52 0.66 0.70 0.55 0.66 0.76 0.72 1.00 0.81 0.71 0.64 0.89 0.84
0.46 0.69 1.30 1.16 0.92 1.07 1.85 2.46 1.41 0.97 1.13 1.66 2.26 1.11 0.73 0.61 0.73 0.46 0.28 0.34 0.39 0.45 0.68 0.92 1.20 1.20 1.23 1.17 1.26 1.16 0.94 0.74 0.85 1.00 1.09 1.42 1.30 1.11 1.12 1.03 0.78 0.84 0.68
0.38 0.57 0.93 0.74 0.81 0.80 1.09 1.75 2.00 1.40 1.45 1.78 1.84 1.17 0.92 0.75 0.70 0.57 0.38 0.36 0.35 0.39 0.55 0.80 1.16 1.27 1.34 1.52 1.29 0.96 0.94 0.67 0.67 1.06 1.75 1.84 1.42 1.36 1.13 1.26 1.44 1.26 1.03
0.41 0.62 1.03 1.27 0.62 0.82 0.94 1.19 1.68 1.46 1.26 1.60 1.94 1.70 1.17 1.00 0.66 0.71 0.69 0.63 0.51 0.47 0.56 0.84 1.12 1.26 1.05 1.00 1.09 1.32 1.55 1.46 0.89 0.59 0.73 0.86 0.91 0.95 1.04 1.37 1.55 1.74 1.88
0.37 0.45 0.95 1.53 0.94 0.85 0.85 1.02 1.30 1.34 1.22 1.06 1.27 1.57 1.42 1.27 1.11 0.93 0.70 0.77 0.89 0.77 0.68 0.82 1.06 1.61 1.49 1.09 0.74 0.75 1.03 1.16 1.04 1.09 0.82 0.66 0.64 0.79 1.17 1.01 1.77 2.43 2.27
0.22 0.33 0.72 1.02 1.17 1.13 0.91 0.93 0.87 0.86 1.09 0.77 0.89 0.94 1.18 1.67 1.72 1.33 1.24 1.33 1.27 1.29 1.36 1.60 1.80 1.93 1.54 1.22 0.88 0.66 0.62 0.59 0.47 0.43 0.45 0.46 0.45 0.44 0.44 0.55 0.78 1.06 0.93
0.17 0.43 0.85 0.92 1.07 1.07 0.77 0.64 0.61 0.71 0.78 0.83 0.76 0.77 0.97 1.08 1.05 1.14 1.36 1.60 1.59 1.46 1.19 0.99 1.09 1.24 1.23 1.08 0.98 0.69 0.62 0.43 0.32 0.23 0.24 0.34 0.37 0.52 0.51 0.42 0.57 0.63 0.58
0.12 0.37 0.48 0.71 0.88 0.60 0.38 0.33 0.37 0.42 0.50 0.83 0.84 0.55 0.77 0.98 0.94 0.84 1.13 1.97 2.14 1.36 0.90 0.94 1.21 1.21 1.09 0.96 1.31 1.03 0.74 0.48 0.33 0.22 0.18 0.25 0.26 0.32 0.63 0.66 0.48 0.56 0.68
0.16 0.38 0.47 0.32 0.27 0.28 0.28 0.16 0.12 0.17 0.29 0.63 0.95 0.69 0.72 0.81 0.76 0.88 0.69 0.82 1.40 1.71 1.55 1.09 1.08 1.35 1.24 1.18 1.29 1.23 1.10 1.09 0.65 0.36 0.33 0.22 0.20 0.29 0.27 0.42 0.54 0.43 0.54
0.08 0.12 0.24 0.13 0.07 0.07 0.10 0.13 0.11 0.16 0.32 1.03 1.33 1.00 0.74 0.78 0.75 0.79 0.74 0.67 0.81 1.47 1.55 1.17 0.82 0.95 1.35 1.30 1.19 1.17 1.11 0.76 0.54 0.34 0.34 0.26 0.21 0.20 0.23 0.24 0.27 0.33 0.31
0.03 0.05 0.23 0.13 0.06 0.05 0.05 0.05 0.07 0.11 0.16 0.50 1.03 0.94 0.74 1.02 0.95 0.80 0.92 0.96 0.83 0.81 1.15 1.14 0.92 0.84 1.33 1.22 1.75 1.18 0.77 0.73 0.99 0.75 0.53 0.46 0.43 0.29 0.24 0.33 0.35 0.27 0.30
0.06 0.08 0.20 0.16 0.16 0.08 0.11 0.15 0.26 0.20 0.14 0.23 0.89 1.22 0.98 0.99 1.17 1.18 1.13 1.25 1.22 1.29 0.96 1.45 1.37 1.26 1.39 1.08 0.64 0.95 1.21 1.04 1.27 1.39 0.94 0.60 0.68 0.50 0.43 0.41 0.59 0.45 0.41
0.02 0.11 0.19 0.15 0.21 0.23 0.27 0.22 0.22 0.29 0.18 0.19 0.51 1.07 1.37 1.23 1.24 1.22 1.20 1.18 1.06 1.10 1.25 1.45 1.81 1.78 1.79 1.56 1.15 1.07 1.01 1.00 0.77 1.16 1.30 0.87 0.79 0.70 0.66 1.02 0.89 0.77 0.68

GFSSE_prec_precacc_177.txt.gz
Total_Precipitation_Accumulation
0.62 0.50 0.15 0.16 0.07 0.03 0.01 0.00 0.00 0.00 0.00 0.00 0.00 0.00 0.00 0.00 0.00 0.00 0.00 0.01 0.01 0.04 0.02 0.02 0.03 0.08 0.13 0.19 0.15 0.11 0.12 0.15 0.32 0.39 0.43 0.65 0.37 0.25 0.20 0.36 0.44 0.40 0.74
1.16 0.77 0.88 0.38 0.10 0.05 0.02 0.01 0.01 0.00 0.01 0.00 0.00 0.00 0.00 0.01 0.00 0.00 0.01 0.02 0.03 0.04 0.03 0.02 0.06 0.10 0.12 0.13 0.05 0.04 0.05 0.11 0.14 0.20 0.43 0.67 0.44 0.36 0.30 0.38 0.53 0.61 0.65
1.63 1.11 1.16 1.30 0.69 0.31 0.12 0.05 0.02 0.01 0.02 0.02 0.02 0.02 0.03 0.03 0.02 0.03 0.02 0.03 0.07 0.10 0.10 0.08 0.13 0.14 0.10 0.05 0.04 0.05 0.03 0.04 0.06 0.18 0.58 0.53 0.56 0.78 0.53 0.45 0.52 0.64 0.48
1.09 0.72 1.42 1.51 1.17 0.82 0.46 0.19 0.07 0.04 0.03 0.02 0.02 0.06 0.08 0.08 0.10 0.07 0.05 0.04 0.08 0.13 0.16 0.15 0.20 0.19 0.06 0.02 0.02 0.03 0.02 0.02 0.04 0.17 0.50 0.68 0.65 0.96 0.94 1.00 0.92 0.60 0.34
1.10 0.53 0.94 1.35 1.41 1.04 0.62 0.37 0.17 0.08 0.04 0.02 0.03 0.05 0.03 0.10 0.10 0.17 0.16 0.04 0.07 0.21 0.29 0.27 0.35 0.19 0.04 0.01 0.00 0.01 0.02 0.02 0.06 0.26 0.45 0.89 0.85 1.16 1.10 1.08 1.19 1.25 0.89
1.42 0.99 0.92 1.48 1.80 2.24 1.42 0.76 0.42 0.20 0.06 0.06 0.06 0.03 0.18 0.21 0.31 0.51 0.45 0.23 0.24 0.30 0.44 0.45 0.43 0.15 0.03 0.00 0.00 0.03 0.06 0.06 0.13 0.45 0.70 1.61 1.15 1.37 1.11 0.90 0.65 0.76 0.85
2.25 2.01 1.35 2.12 2.90 4.09 4.61 3.35 2.23 1.26 0.75 0.50 0.51 0.64 0.49 0.43 0.83 0.71 0.47 0.47 0.43 0.38 0.38 0.55 0.46 0.14 0.08 0.03 0.03 0.04 0.04 0.12 0.31 1.54 0.80 0.92 1.55 1.16 1.09 0.97 1.02 1.16 0.88
3.15 2.80 2.72 2.26 2.72 3.64 5.96 6.17 5.52 5.61 3.44 1.62 1.20 1.15 1.16 1.05 0.83 0.53 0.44 0.62 0.40 0.33 0.43 0.31 0.15 0.08 0.07 0.10 0.08 0.04 0.01 0.11 0.25 0.57 0.49 0.54 0.66 1.02 0.81 0.82 1.00 1.14 1.12
5.65 5.53 4.89 3.87 3.00 2.29 2.99 4.30 4.65 4.21 4.54 3.91 2.76 1.81 2.37 1.85 1.28 0.66 0.49 0.63 0.82 0.75 0.57 0.19 0.20 0.23 0.15 0.18 0.22 0.11 0.05 0.08 0.21 0.47 0.45 0.46 0.92 0.98 0.72 0.62 0.61 0.59 0.53
8.06 7.51 5.82 4.85 3.15 1.53 1.90 2.20 2.56 3.88 2.85 2.42 3.25 2.85 2.21 1.64 1.26 1.03 0.89 0.92 0.94 0.86 1.04 1.24 1.04 0.92 0.59 0.40 0.36 0.27 0.06 0.04 0.20 0.46 0.58 0.37 0.75 1.12 0.80 0.78 0.67 0.55 0.51
6.02 6.49 6.29 4.35 3.00 1.52 1.00 1.11 1.12 2.29 2.92 2.49 1.38 2.24 2.27 1.65 1.42 1.38 1.24 1.33 1.62 1.48 1.36 0.91 0.69 0.50 0.43 0.42 0.40 0.43 0.34 0.16 0.21 0.38 0.44 0.69 0.95 1.10 1.16 0.88 0.59 0.60 0.64
3.38 3.57 5.25 4.49 3.11 2.20 1.65 1.18 0.78 1.13 2.06 2.72 1.75 1.18 1.51 1.48 1.23 1.28 1.41 1.36 1.37 1.41 1.13 0.86 0.73 0.56 0.54 0.39 0.36 0.42 0.40 0.38 0.27 0.26 0.18 0.40 0.76 0.96 0.80 0.69 0.57 0.49 0.59
1.24 1.56 2.39 3.63 4.15 3.15 1.92 1.38 0.74 0.86 1.59 2.65 2.40 1.11 1.09 1.26 1.16 0.87 0.79 1.11 1.13 1.46 1.16 1.13 0.80 0.60 0.51 0.40 0.35 0.33 0.35 0.35 0.30 0.33 0.42 0.51 0.63 0.84 0.66 0.63 0.62 0.67 0.67
0.71 0.94 1.85 2.26 2.27 2.58 2.72 1.61 0.83 0.55 1.16 1.90 2.40 1.10 1.05 0.88 1.03 0.61 0.37 0.51 0.75 0.88 1.08 1.53 1.44 1.04 0.96 0.69 0.54 0.54 0.52 0.66 0.70 0.55 0.66 0.76 0.72 1.00 0.81 0.71 0.64 0.89 0.84
0.46 0.69 1.30 1.16 0.92 1.07 1.85 2.46 1.42 0.98 1.14 1.66 2.27 1.11 0.73 0.61 0.73 0.46 0.28 0.34 0.39 0.45 0.68 0.92 1.20 1.20 1.23 1.17 1.26 1.16 0.94 0.74 0.85 1.00 1.09 1.42 1.30 1.11 1.12 1.03 0.78 0.84 0.68
0.38 0.57 0.93 0.74 0.81 0.80 1.09 1.75 2.01 1.42 1.46 1.78 1.84 1.17 0.92 0.75 0.70 0.57 0.38 0.36 0.35 0.39 0.55 0.80 1.16 1.27 1.34 1.52 1.29 0.96 0.94 0.67 0.67 1.06 1.75 1.84 1.42 1.36 1.13 1.26 1.44 1.26 1.03
0.41 0.62 1.03 1.27 0.62 0.82 0.94 1.20 1.70 1.47 1.27 1.60 1.94 1.70 1.17 1.00 0.66 0.71 0.69 0.63 0.51 0.47 0.56 0.84 1.12 1.26 1.05 1.00 1.09 1.32 1.55 1.46 0.89 0.59 0.73 0.86 0.91 0.95 1.04 1.37 1.55 1.74 1.88
0.37 0.45 0.95 1.53 0.95 0.86 0.87 1.03 1.32 1.35 1.22 1.06 1.27 1.57 1.42 1.27 1.11 0.93 0.70 0.77 0.89 0.77 0.68 0.82 1.06 1.61 1.49 1.09 0.74 0.75 1.03 1.16 1.04 1.09 0.82 0.66 0.64 0.79 1.17 1.01 1.77 2.43 2.27
0.22 0.33 0.72 1.03 1.19 1.15 0.93 0.94 0.90 0.87 1.09 0.77 0.89 0.94 1.18 1.67 1.72 1.33 1.24 1.33 1.27 1.29 1.36 1.60 1.80 1.93 1.54 1.22 0.88 0.66 0.62 0.59 0.47 0.43 0.45 0.46 0.45 0.44 0.44 0.55 0.78 1.06 0.94
0.17 0.43 0.85 0.92 1.08 1.09 0.78 0.64 0.62 0.71 0.78 0.83 0.76 0.77 0.97 1.08 1.05 1.14 1.36 1.60 1.59 1.46 1.19 0.99 1.09 1.24 1.23 1.08 0.98 0.69 0.62 0.43 0.32 0.23 0.24 0.34 0.37 0.52 0.51 0.42 0.57 0.63 0.58
0.12 0.37 0.48 0.72 0.89 0.61 0.38 0.33 0.38 0.45 0.51 0.83 0.84 0.55 0.77 0.98 0.94 0.84 1.13 1.97 2.14 1.36 0.90 0.94 1.21 1.21 1.09 0.96 1.31 1.03 0.74 0.48 0.33 0.22 0.18 0.25 0.26 0.32 0.63 0.66 0.48 0.56 0.69
0.16 0.38 0.47 0.32 0.27 0.29 0.29 0.17 0.14 0.20 0.31 0.64 0.95 0.69 0.72 0.81 0.76 0.88 0.69 0.82 1.40 1.71 1.55 1.09 1.08 1.35 1.24 1.18 1.29 1.23 1.10 1.09 0.65 0.36 0.33 0.22 0.20 0.29 0.27 0.42 0.54 0.44 0.54
0.08 0.12 0.24 0.13 0.07 0.07 0.11 0.13 0.14 0.17 0.33 1.03 1.33 1.00 0.74 0.78 0.75 0.79 0.74 0.67 0.81 1.47 1.55 1.17 0.82 0.95 1.35 1.30 1.19 1.17 1.11 0.76 0.54 0.34 0.34 0.26 0.21 0.20 0.23 0.24 0.28 0.33 0.31
0.03 0.05 0.23 0.13 0.06 0.05 0.05 0.06 0.08 0.13 0.16 0.50 1.03 0.94 0.74 1.02 0.95 0.80 0.92 0.96 0.83 0.81 1.15 1.14 0.92 0.84 1.33 1.22 1.75 1.18 0.77 0.73 0.99 0.75 0.53 0.46 0.43 0.29 0.24 0.35 0.36 0.28 0.30
0.06 0.08 0.20 0.16 0.16 0.08 0.11 0.16 0.27 0.20 0.14 0.23 0.89 1.22 0.98 0.99 1.17 1.18 1.13 1.25 1.22 1.29 0.96 1.45 1.37 1.26 1.39 1.08 0.64 0.95 1.21 1.04 1.27 1.39 0.94 0.60 0.68 0.50 0.43 0.43 0.60 0.46 0.41
0.02 0.11 0.19 0.15 0.24 0.26 0.30 0.24 0.24 0.30 0.18 0.19 0.51 1.07 1.37 1.23 1.24 1.22 1.20 1.18 1.06 1.10 1.25 1.45 1.81 1.78 1.79 1.56 1.15 1.07 1.01 1.00 0.77 1.16 1.30 0.87 0.79 0.70 0.67 1.03 0.89 0.78 0.69